STARLINK-36490, 67305

Orbit data source: Space-Track

STARLINK-36490, 67305 is a payload satellite owned by SpaceX/Seattle (US) in LEO that was launched on Sun, 04 Jan 2026 UTC via an FALCON 9 launch vehicle from the Air Force Eastern Test Range (AFETR). Payload-class satellites include a variety of spacecraft equipped with specific instruments for various scientific and technological missions. These include communications satellites like Starlink; space stations such as the ISS; scientific satellites like the Hubble; Earth observation satellites from companies like Planet Labs, Umbra, and HawkEye 360; GPS; miniature CubeSats for education and research; and military/defense satellites.

Loading next visibility...
Identifier
67305, 2026-002A
Orbit
LEO
Country
Flag of USUS
Related business
Manufacturer
SpaceX/Seattle
Mission
Operational Commercial Communications
Bus & Motor
STARLINK V2MO, Unknown motor
Mass
575 kg wet, ~530 kg dry
Launch date (UTC)
2026-01-04 (2 months ago)
Launch vehicle
FALCON 9
Launch site
Air Force Eastern Test Range (AFETR)
Object type
Payload
Rocket body
Debris
Shape & HBR
Box + 2 Pan, 17.7 m
Radar Cross Section
36.964 m²

Expand to show TLE details & history
Last TLE update: 1 day ago

TLE from 1 day ago
0 STARLINK-36490
1 67305U 26002A   26062.15984211  .00030520  00000-0  11132-2 0  9998
2 67305  43.0053   1.8507 0002896 250.3763 109.6777 15.27600975 10145
Epoch: 2026-03-03T03:50Z
TLE epoch observation values (Epoch: 2026-03-03T03:50:10.358Z)
Latitude
0.00004°
Longitude
143.36469°
Altitude
483.432 km
Speed
7.625 km/s
True Right ascension
00h 07m 24s
True Declination
0° 00' 00"
Sunlit
Object was in daylight at epoch
Visualization orbit readout
Latitude
Unknown
Longitude
Unknown
Altitude
Unknown
Speed
Unknown
Apparent Right ascension
Unknown
Apparent Declination
Unknown
Sunlit
N/A
Visualization observer readout
Local Sidereal Time
09:13:35
Azimuth
Unknown
Elevation
Unknown
Doppler factor
Unknown
Orbital elements
Apogee altitude
486.918 km
Perigee altitude
482.943 km
Semi-major axis
6,863.068 km
Eccentricity
0.00029
Inclination
43.0053°
RAAN
1.8507°
Arg. of periapsis
250.3763°
True anomaly
109.70894°
Mean anomaly
109.6777°
Eccentric anomaly
109.69332°
Mean motion
3.81738 °/min
Orbital period
94.31 mins
BSTAR
0.0011132
Loading maneuver chart data...
Computing Atmospheric mass density...
Loading historical data...
Loading historical data...
Loading historical data...
Loading historical data...
Loading historical data...
Loading historical data...
Loading historical data...

Documentation

Showing up to 5 results
|